Location: Newark
(42.9858°N, 0.6717°E)
Time: 16:39:10
(UTC+00:00)

Envisat - Pass Details

Date: 25 October 2019
Orbit: 764 x 766 km, 98.1° (Epoch: 20 November)

Event Time Altitude Azimuth Distance (km) Brightness Sun altitude
Rises 17:42:52 0° 158° (SSE) 3,219 6.1 -8.5°
Reaches altitude 10° 17:45:10 10° 155° (SSE) 2,297 5.3 -9.0°
Maximum altitude 17:50:12 68° 74° (ENE) 826 3.0 -9.9°
Drops below altitude 10° 17:55:15 10° 352° (N) 2,313 5.5 -10.8°
Sets 17:57:35 0° 350° (N) 3,243 6.3 -11.2°
